sat.trackr.live / text

‹ back to catalog

STARLINK-37716

NORAD 69213 · 2026-115C

PAYLOAD ACTIVE UNKNOWN

§ Identity

Operator
Country
US
Launch date
2026-05-26
Launch site
AFWTR
Launch vehicle
Mass (kg)
RCS (m²)

Purposes: comms

External: N2YO · Heavens-Above · Gunter

§ Orbital elements

Epoch: 2026-09-20T00:42:20.077056Z

Period
93.91 min
Inclination
97.2850°
Eccentricity
0.0000653
Mean motion
15.33445944 rev/d
Perigee alt
465.1 km
Apogee alt
466.0 km
Semi-major
6,843.7 km
B*
3.0733e-4
RAAN
279.0605°
Arg perigee
86.3040°
Mean anomaly
273.8278°
Rev number
1,921

§ Raw data

STARLINK-377161 69213U 26115C   26263.02939904  .00009860  00000+0  30733-3 0  99922 69213  97.2850 279.0605 0000653  86.3040 273.8278 15.33445944 19210

JSON: /api/v1/satellites/69213 · /tle

For live sub-satellite position, see the globe view (requires WebGL).

§ Visibility from observer

Set your observer location to see the next 7 days of passes ≥ 10°. The values pass through the URL so the page stays shareable.

No JS? Fill the form by hand. The geolocation button needs JavaScript.